Regional Weather Roundup
Issued by NWS

Home | Current Version | Previous Version | Text Only | Print | Product List | Glossary On
Versions: 1 2 3 4 5 6 7 8 9 10 11 12 13 14 15 16 17 18 19 20 21 22 23 24 25 26 27 28 29 30 31 32 33 34 35 36 37 38 39 40 41 42 43 44 45 46 47 48 49 50
000
ASUS42 KFFC 221603
RWRGA
WEATHER ROUNDUP FOR GEORGIA
NATIONAL WEATHER SERVICE PEACHTREE CITY GA
1200 PM EDT FRI AUG 22 2014

NOTE: "FAIR" INDICATES FEW OR NO CLOUDS BELOW 12,000 FEET WITH NO
SIGNIFICANT WEATHER AND/OR OBSTRUCTIONS TO VISIBILITY.

* = USE WITH CAUTION. THE STATIONS MARKED WITH AN ASTERISK MAY NOT
REPORT WEATHER SUCH AS PRECIPITATION, FOG, OR THUNDER AND ARE NOT
QUALITY CONTROLLED BY NWS.

THE REMARK "TC" DENOTES TEMPERATURE READING IN DEGREES CELSIUS.

GAZ001>058-221700-
NORTH GEORGIA

CITY           SKY/WX    TMP DP  RH WIND       PRES   REMARKS
ATLANTA        MOSUNNY   88  72  58 N13       30.14S HX  94
ATHENS         MOSUNNY   92  72  51 NW8       30.11S HX  99
CHAMBLEE       MOSUNNY   89  71  55 NW7G16    30.14S HX  95
PEACHTREE CITY SUNNY     89  75  63 W7        30.14S HX  99
ROME           SUNNY     91  73  55 N8        30.11F HX  99
WEST ATLANTA   SUNNY     89  72  56 NW8       30.13S HX  96
GAINESVILLE    MOSUNNY   87  70  56 NW12G18   30.15F HX  92
CARTERSVILLE   SUNNY     88  72  58 VRB3      30.13F HX  94


CITY           SKY/WX    TMP DP  RH WIND       PRES   REMARKS
DALTON*        PTSUNNY   86  73  66 NW9       30.12F HX  93
LAWRENCEVILLE* MOSUNNY   88  70  55 W12G17    30.13F HX  92
MARIETTA       MOSUNNY   88  73  59 VRB6      30.14F HX  95
KENNESAW*      MOSUNNY   86  72  62 NW9       30.16S HX  92
$$

GAZ059>098-102>109-221700-
CENTRAL GEORGIA

CITY           SKY/WX    TMP DP  RH WIND       PRES   REMARKS
AUGUSTA-BUSH   SUNNY     94  70  45 NW13      30.05F HX 100
AUGUSTA-DANIEL SUNNY     93  71  48 W6        30.07F HX 100
COLUMBUS       SUNNY     93  71  48 NW12      30.11F HX 100
MACON          MOSUNNY   93  72  50 N7        30.10F HX 101
ROBINS AFB     SUNNY     92  75  56 N8        30.09F HX 103


CITY           SKY/WX    TMP DP  RH WIND       PRES   REMARKS
LAGRANGE*      SUNNY     93  78  62 NW6       30.14S HX 109
SYLVANIA*      SUNNY     94  76  54 N8        30.07S HX 106
MILLEDGEVILLE* SUNNY     91  75  59 NW3       30.09F HX 102
$$

GAZ099>101-110>166-221700-
SOUTH GEORGIA

CITY           SKY/WX    TMP DP  RH WIND       PRES   REMARKS
SAVANNAH       MOSUNNY   95  71  45 N6        30.06S HX 102
VALDOSTA       SUNNY     93  69  45 VRB5      30.10S HX  98
ALMA           SUNNY     92  73  53 NW7       30.08F HX 100
ST SIMONS      SUNNY     93  73  52 NW7       30.06S HX 102
FT STEWART     SUNNY     95  72  47 N7        30.05F HX 104
ALBANY         SUNNY     93  74  53 N7        30.13S HX 103
HUNTER AFB     SUNNY     94  74  50 NW7       30.04S HX 104
MOODY AFB      SUNNY     90  72  54 VRB5      30.10S HX  96
BRUNSWICK      SUNNY     95  72  46 NW5       30.07S HX 103


CITY           SKY/WX    TMP DP  RH WIND       PRES   REMARKS
BAINBRIDGE*    SUNNY     97  77  52 NW5       30.11S HX 112
MOULTRIE*      SUNNY     90  72  55 NW8       30.12S HX  96
VIDALIA*         N/A     91  73  55 NW9       30.09S HX 100
WAYCROSS*      SUNNY     94  78  58 NW7       30.09S HX 110
DOUGLAS*       SUNNY     95  70  43 N7        30.11F HX 101
$$


USA.gov is the U.S. government's official web portal to all federal, state and local government web resources and services.